Back to catalog

BREEZE-M DEB

AliveHEO
NORAD 38592·DEBRIS·🇷🇺 Russia

Launched Mar 14, 2008 from Baikonur Cosmodrome

Loading…

Next Passes (next 24 hours)

TLE

FreshSource: Space-Track

Epoch: Sep 14, 2026, 09:37 UTC

1 38592U 08011AP  26257.40113502  .00000222  00000-0  19587-2 0  9993
2 38592  48.7439 201.9384 6425491  41.4510  56.8273  3.16128381174205

Track BREEZE-M DEB in real time with AllMySat

Download on the App Store